Home > Weather > El Jadida > Past weeks

Flag for Morocco Weather for the Past 2 Weeks in El Jadida, Morocco

Now
48 °F

Passing clouds.


Feels Like: 48 °F
Forecast: 57 / 66 °F
Wind: 2 mph from Southeast

Location: Nouasseur

Current Time: Feb 10, 2016 at 1:15:40 AM

Latest Report: Feb 10, 2016 at 12:30 AM


Visibility: N/A

Pressure: 30.45 "Hg

Humidity: 87%

Dew point: 45 °F

Location of El JadidaLocation

Historic Weather in El Jadida — Graph

°F

El Jadida Temperature Yesterday

Maximum temperature yesterday: 68 °F (at 2:00 PM)
Minimum temperature yesterday: 46 °F (at 3:30 AM)
Average temperature yesterday: 56 °F

High & Low Weather Summary for the Past Weeks

 TemperatureHumidityPressure
High79 °F (Feb 6, 2:30 PM)100% (Jan 26, 2:00 AM)30.69 "Hg (Jan 26, 2:00 AM)
Low39 °F (Feb 1, 7:00 AM)26% (Feb 6, 2:30 PM)30.18 "Hg (Feb 4, 4:00 PM)
Average57 °F77%30.38 "Hg
* Reported Midnight between Jan 25 and Jan 26 — Midnight between Feb 9 and Feb 10, El Jadida, Weather by CustomWeather, © 2016

Note: Actual official high and low records may vary slightly from our data, if they occured in-between our weather recording intervals... More about our weather records

Advertising

El Jadida Weather History for the Previous 24 Hours

 ConditionsComfort  
Time TempWeatherWind HumidityBarometerVisibility
12:00 AM
Wed, Feb 10
50 °FPassing clouds.3 mph88%30.45 "HgN/A
11:30 PM
Tue, Feb 9
50 °FPassing clouds.3 mph88%30.45 "HgN/A
11:00 PM50 °FPassing clouds.5 mph88%30.45 "HgN/A
10:30 PM52 °FPassing clouds.5 mph88%30.45 "HgN/A
9:30 PM55 °FPassing clouds.2 mph82%30.45 "HgN/A
9:00 PM57 °FPassing clouds.3 mph82%30.45 "HgN/A
8:30 PM57 °FPassing clouds.3 mph82%30.45 "HgN/A
8:00 PM57 °FPassing clouds.6 mph77%30.45 "HgN/A
7:30 PM57 °FPassing clouds.8 mph77%30.45 "HgN/A
7:00 PM59 °FPassing clouds.10 mph72%30.45 "HgN/A
6:30 PM61 °FPassing clouds.12 mph68%30.45 "HgN/A
6:00 PM63 °FPassing clouds.14 mph64%30.45 "HgN/A
5:30 PM64 °FPassing clouds.14 mph60%30.45 "HgN/A
5:00 PM66 °FPassing clouds.13 mph56%30.42 "HgN/A
4:00 PM68 °FPassing clouds.10 mph49%30.42 "HgN/A
3:30 PM68 °FPassing clouds.8 mph49%30.42 "HgN/A
3:00 PM68 °FPassing clouds.9 mph49%30.42 "HgN/A
2:30 PM68 °FPassing clouds.5 mph53%30.42 "HgN/A
2:00 PM68 °FPassing clouds.7 mph49%30.45 "HgN/A
1:00 PM66 °FScattered clouds.7 mph56%30.48 "HgN/A
12:30 PM64 °FScattered clouds.8 mph60%30.48 "HgN/A
12:00 PM63 °FScattered clouds.3 mph68%30.48 "HgN/A
11:30 AM63 °FPartly sunny.7 mph68%30.51 "HgN/A
11:00 AM63 °FPartly sunny.5 mph73%30.51 "HgN/A
10:00 AM61 °FPassing clouds.3 mph77%30.48 "HgN/A
9:30 AM57 °FScattered clouds.3 mph88%30.48 "HgN/A
9:00 AM54 °FScattered clouds.2 mph88%30.48 "Hg6 mi
8:00 AM48 °FFog.3 mph94%30.45 "Hg2 mi
7:30 AM48 °FFog.3 mph87%30.45 "Hg2 mi
7:00 AM48 °FFog.6 mph94%30.45 "Hg1 mi
6:00 AM48 °FPassing clouds.7 mph100%30.42 "HgN/A
5:00 AM48 °FPassing clouds.1 mph94%30.42 "HgN/A
4:30 AM46 °FPassing clouds.No wind93%30.42 "HgN/A
4:00 AM46 °FPassing clouds.5 mph87%30.42 "HgN/A
3:30 AM46 °FPassing clouds.6 mph87%30.42 "HgN/A
3:00 AM48 °FPassing clouds.1 mph87%30.39 "HgN/A
2:30 AM50 °FPassing clouds.No wind88%30.39 "HgN/A
2:00 AM48 °FPassing clouds.1 mph94%30.42 "HgN/A
1:30 AM48 °FPassing clouds.No wind94%30.42 "HgN/A
1:00 AM50 °FPassing clouds.8 mph88%30.42 "HgN/A
Weather by CustomWeather, © 2016

See weather overviewHow to use our weather pages